Tracking 19170 objects as of 22-May-2018
HD Live streaming from Space Station
objects crossing your sky now

COSMOS 766

Track COSMOS 766 now!
10-day predictions
COSMOS 766 is classified as:


NORAD ID: 8290
Int'l Code: 1975-086F
Perigee: 1,424.8 km
Apogee: 1,491.3 km
Inclination: 74.0 °
Period: 114.9 minutes
Semi major axis: 7829 km
RCS: 0.694 m2 (medium)
Launch date: September 17, 1975
Source: Commonwealth of Independent States (former USSR) (CIS)
Launch site: PLESETSK MISSILE AND SPACE COMPLEX (PKMTR)
aabbcc
Your satellite tracking list
Your tracking list is empty




NASA's NSSDC Master Catalog

Two Line Element Set (TLE):
1  8290U 75086F   18141.45419472 -.00000010 +00000-0 +38015-4 0  9999
2  8290 074.0066 130.4911 0042485 345.3664 128.9995 12.53250431952361
Source of the keplerian elements: AFSPC